Regional Weather Roundup
Issued by NWS

Home | Current Version | Previous Version | Text Only | Print | Product List | Glossary Off
Versions: 1 2 3 4 5 6 7 8 9 10 11 12 13 14 15 16 17 18 19 20 21 22 23 24 25 26 27

000
ASUS45 KTFX 161010
RWRMT
MONTANA REGIONAL WEATHER ROUNDUP
NATIONAL WEATHER SERVICE GREAT FALLS MT
300 AM MST SAT DEC 16 2017

NOTE: "FAIR" INDICATES FEW OR NO CLOUDS BELOW 12000 FEET WITH NO
SIGNIFICANT WEATHER AND/OR OBSTRUCTIONS TO VISIBILITY.

MTZ001>007-043-161100-
WEST OF THE DIVIDE

CITY           SKY/WX    TMP DP  RH WIND       PRES   REMARKS
KALISPELL      CLOUDY    27  27 100 CALM      29.99R
MISSOULA       LGT SNOW  29  28  96 CALM      29.99S FOG
BUTTE          LGT SNOW  27  23  85 NW6       29.87S FOG     WCI  20
MULLAN PASS    LGT SNOW  20  16  84 NW5       29.91R FOG
ANACONDA         N/A     27  25  93 CALM      29.90R
DEER LODGE       N/A     27  27 100 CALM      29.93R VSB 3/4
EUREKA           N/A     27  23  86 MISG      30.03S
HAMILTON         N/A     27  27 100 NW7       29.96R WCI  19
LIBBY            N/A     27  27 100 CALM      30.03R
PLAINS           N/A     26  21  81 CALM      30.03
RONAN            N/A     29  27  92 CALM      30.02R
$$

MTZ008-052>055-161100-
SOUTHWEST MONTANA

CITY           SKY/WX    TMP DP  RH WIND       PRES   REMARKS
BOZEMAN        LGT SNOW  30  28  92 CALM      29.89R FOG
DILLON         CLOUDY    30  23  75 SW6       29.85S WCI  24
W YELLOWSTONE  LGT SNOW  25  23  93 S7        29.85F WCI  17
ENNIS          LGT SNOW  28  28 100 S8        29.90S WCI  20
THREE FORKS      N/A     28  26  92 CALM      29.89S
TWIN BRIDGES     N/A     30  23  75 CALM      29.88
$$

MTZ009-010-012-014-046-048-049-054-161100-
EAST SLOPES AND CENTRAL MONTANA

CITY           SKY/WX    TMP DP  RH WIND       PRES   REMARKS
CUT BANK       CLOUDY    28  27  96 E3        29.89S
GREAT FALLS    CLOUDY    31  26  82 CALM      29.90S
MALMSTROM AFB  MOCLDY    31  29  91 NE7       29.91S WCI  24
HELENA         LGT SNOW  31  29  92 SW5       29.90S FOG
BOWMANS CRNR   FLURRIES  28  25  91 N5        29.86R
CHOTEAU          N/A     27  27 100 S5        29.90F
FAIRFIELD      MOCLDY    26  23  91 CALM      29.89S
POWER          MOCLDY    28  26  94 CALM      29.89R
RAYNESFORD     CLOUDY    31  27  83 SE10      29.89S WCI  23
ULM            FLURRIES  32  29  88 CALM      29.90S
$$

MTZ011-013-016-021-045-047-050-051-161100-
NORTH CENTRAL MONTANA

CITY           SKY/WX    TMP DP  RH WIND       PRES   REMARKS
HAVRE          CLOUDY    31  30  96 W6        29.92R WCI  25
LEWISTOWN      CLOUDY    31  29  92 CALM      29.89R
N BAR RANCH    CLOUDY    30  27  86 NW6       29.89F WCI  24
CHINOOK          N/A     30  30 100 CALM      29.92R
DENTON         FLURRIES  31  30  94 MISG      29.87R
GEYSER         FLURRIES  31  24  77 CALM      29.89S
GRASS RANGE    CLOUDY    33  26  75 CALM      29.86R
STANFORD       LGT SNOW  28  28  99 NW7       29.88S FOG     WCI  21
WINIFRED       CLOUDY    31  29  94 SW5       29.88S
$$

MTZ017>020-022>027-061-062-161100-
NORTHEAST MONTANA

CITY           SKY/WX    TMP DP  RH WIND       PRES   REMARKS
GLASGOW        FAIR      26  23  88 N6        29.86R WCI  19
GLENDIVE       FAIR      34  28  79 NW14      29.84R WCI  25
JORDAN           N/A     29  26  89 W7        29.88R WCI  22
SIDNEY         FAIR      33  29  85 NW14      29.80R WCI  23
WOLF POINT     FAIR      31  26  82 W10       29.86R WCI  22
MALTA          MOCLDY    30  30 100 NW10      29.90S WCI  21
PLENTYWOOD       N/A     34  27  75 NW18      29.77R WCI  23
POPLAR           N/A     30  25  80 W7        29.84R WCI  23
SCOBEY           N/A     28  18  66 W8        29.80R WCI  20
$$

MTZ028>42-056>058-161100-
SOUTHCENTRAL AND SOUTHEAST MONTANA

CITY           SKY/WX    TMP DP  RH WIND       PRES   REMARKS
BAKER          CLOUDY    33  33 100 W12       29.82R WCI  24
BILLINGS       LGT SNOW  32  32 100 NE6       29.89S FOG     WCI  26
LIVINGSTON     LGT SNOW  33  32  96 W8        29.86R FOG     WCI  26
MILES CITY     CLOUDY    35  32  88 NW10      29.87R WCI  27
BIG TIMBER     CLOUDY    36  30  80 W15       29.87R WCI  26
EKALAKA          N/A     32  28  85 NW9       29.81R WCI  24
FORSYTH          N/A     36  34  93 W5        29.89R
LAUREL           N/A     32  32 100 NE6       29.90S FOG     WCI  26
$$

REGIONAL REPORTS...DAKOTAS

CITY           SKY/WX    TMP DP  RH WIND       PRES   REMARKS
WILLISTON        N/A    N/A N/A N/A MISG      29.77R
MINOT          FAIR      37  31  78 W14       29.69R WCI  28
DICKINSON      CLOUDY    33  32  96 W15       29.73R WCI  23
BEACH          CLOUDY    34  32  93 NW13      29.83R WCI  25
CROSBY         FAIR      32  30  93 NW15      29.74R WCI  22
TIOGA          CLOUDY    34  34 100 NW15      29.74R WCI  24
WATFORD CITY   FAIR      34  30  86 NW14G20   29.76R WCI  24
BISMARCK       CLOUDY    38  36  92 NW12      29.71R WCI  30
GRAND FORKS    CLOUDY    21  19  92 E8        29.71R WCI  11
FARGO          FAIR      25  22  88 NE5       29.67R
BUFFALO SD       N/A     36  31  82 NW18      29.73R WCI  26
RAPID CITY     FAIR      37  17  44 N14       29.77R WCI  28
$$

REGIONAL REPORTS...WYOMING/IDAHO/WASHINGTON

CITY           SKY/WX    TMP DP  RH WIND       PRES   REMARKS
GILLETTE       FAIR      30  19  63 N7        29.82R WCI  23
SHERIDAN       MOCLDY    37  25  61 NW14      29.86R WCI  28
BUFFALO WY     FAIR      37  21  52 N13       29.84R WCI  29
CODY           FAIR      34  20  56 N8        29.83F WCI  27
YELLOWSTONE LA   N/A     20  18  92 CALM      29.87S
IDAHO FALLS    LGT SNOW  24  23  96 SW8       29.96S FOG     WCI  15
SALMON         FLURRIES  23  21  92 E3        29.99S
BOISE          MOCLDY    24  23  96 NW7       30.09S WCI  16
SPOKANE        LGT SNOW  25  25 100 SW6       30.11R FOG     WCI  18
$$

REGIONAL REPORTS...ALBERTA

CITY           SKY/WX    TMP DP  RH WIND       PRES   REMARKS
EDMONTON       CLEAR     30  16  55 W15G22    29.82R WCI  19
CALGARY        CLOUDY    30  19  64 SW6       29.89S WCI  24
LETHBRIDGE     FLURRIES  32  28  86 SW14      29.90R WCI  22
MEDICINE HAT   CLOUDY    30  27  86 W9        29.91R WCI  22
$$

REGIONAL REPORTS...SASKATCHEWAN

CITY           SKY/WX    TMP DP  RH WIND       PRES   REMARKS
SWIFT CURRENT  CLEAR     21  18  86 W16       29.80R WCI   7
REGINA         PTCLDY    30  28  93 NW15      29.73R WCI  19
SASKATOON      PTCLDY    28  23  80 W13       29.73R WCI  18
$$




USA.gov is the U.S. government's official web portal to all federal, state and local government web resources and services.